{"data":{"norad_id":56513,"epoch":"2026-09-20T04:00:04.499136Z","epoch_age_seconds":143456,"freshness":"FRESH","line1":"1 56513U 23065L   26263.16671874 -.00001157  00000+0 -32533-4 0  9990","line2":"2 56513  43.0019 194.0764 0001037 261.2997  98.7737 15.27579578186346","mean_motion":15.27579578,"eccentricity":0.0001037,"inclination_deg":43.0019,"raan_deg":194.0764,"arg_perigee_deg":261.2997,"mean_anomaly_deg":98.7737,"bstar":-3.2533e-5,"rev_number":18634,"period_min":94.26677475522,"perigee_km":482.33885453056,"apogee_km":483.76186478895,"semimajor_km":6861.1873596598,"source":"CELESTRAK","updated_at":"2026-09-21T09:00:33.471023Z"}}